Location: Aalen
(48.8330°N, 10.1000°E)
Time: 04:15:02
(UTC+01:00)

Envisat - Pass Details

Date: 02 December 2022
Orbit: 763 x 765 km, 98.2° (Epoch: 28 January)

Event Time Altitude Azimuth Distance (km) Brightness Sun altitude
Rises 05:55:50 0° 5° (N) 3,246 6.2 -18.4°
Reaches altitude 10° 05:58:29 10° 352° (N) 2,315 5.3 -18.0°
Enters shadow 06:01:13 22° 323° (NW) 1,620 4.2 -17.6°
